Regional Weather Roundup
Issued by NWS

Home | Current Version | Previous Version | Graphics & Text | Print | Product List | Glossary On
Versions: 1 2 3 4 5 6 7 8 9 10 11 12 13 14 15 16 17 18 19 20 21 22 23 24 25 26 27 28 29 30 31 32 33 34 35 36 37 38 39 40 41 42 43 44 45 46 47 48 49 50
885
ASUS43 KBIS 242002
RWRND

NORTH DAKOTA REGIONAL WEATHER ROUNDUP
NATIONAL WEATHER SERVICE BISMARCK ND
300 PM CDT MON JUL 24 2017

NOTE: "FAIR" INDICATES FEW OR NO CLOUDS BELOW 12,000 FEET WITH NO
SIGNIFICANT WEATHER AND/OR OBSTRUCTIONS TO VISIBILITY.


NDZ001>003-009>011-017-242100-
NORTHWEST NORTH DAKOTA

CITY           SKY/WX    TMP DP  RH WIND       PRES   REMARKS
WILLISTON      SUNNY     96  49  20 N13       29.75S HX  93
MINOT          SUNNY     96  57  27 S16       29.74F HX  95
MINOT AFB      SUNNY     94  58  29 S16G25    29.73S HX  93
$$

NDZ018>021-031>035-040>046-242100-
SOUTHWEST NORTH DAKOTA

CITY           SKY/WX    TMP DP  RH WIND       PRES   REMARKS
BISMARCK       SUNNY     88  62  41 S16       29.82S
DICKINSON      SUNNY     96  55  25 SE8G21    29.78F HX  94
GARRISON         N/A     91  60  35 S20       29.76F HX  90
HETTINGER ARPT SUNNY     92  57  30 S10       29.84S HX  90
$$

NDZ004>008-012>016-024-026-027-054-242100-
NORTHEAST NORTH DAKOTA

CITY           SKY/WX    TMP DP  RH WIND       PRES   REMARKS
GRAND FORKS    CLOUDY    80  65  59 S16G23    29.89F
GRND FRKS AFB  CLOUDY    78  64  62 S16       29.90S
DEVILS LAKE    CLOUDY    80  65  59 S18       29.86F
$$

NDZ022-023-025-028>030-036>039-047>053-242100-
SOUTHEAST NORTH DAKOTA

CITY           SKY/WX    TMP DP  RH WIND       PRES   REMARKS
FARGO          MOSUNNY   80  63  55 S20G26    29.93
JAMESTOWN      PTSUNNY   79  63  57 SE18      29.87F
$$





USA.gov is the U.S. government's official web portal to all federal, state and local government web resources and services.